Regional Weather Roundup
Issued by NWS

Home | Current Version | Previous Version | Text Only | Print | Product List | Glossary On
Versions: 1 2 3 4 5 6 7 8 9 10 11 12 13 14 15 16 17 18 19 20 21 22 23 24 25 26 27 28 29 30 31 32 33 34 35 36 37 38 39 40 41 42 43 44 45 46 47 48 49 50
000
ASUS43 KBIS 031202
RWRND

NORTH DAKOTA REGIONAL WEATHER ROUNDUP
NATIONAL WEATHER SERVICE BISMARCK ND
700 AM CDT TUE AUG 03 2021

NOTE: "FAIR" INDICATES FEW OR NO CLOUDS BELOW 12,000 FEET WITH NO
SIGNIFICANT WEATHER AND/OR OBSTRUCTIONS TO VISIBILITY.


NDZ001>003-009>011-017-031300-
NORTHWEST NORTH DAKOTA

CITY           SKY/WX    TMP DP  RH WIND       PRES   REMARKS
WILLISTON      MOCLDY    67  49  52 N5        30.05R
6HR MIN TEMP:  66; 6HR MAX TEMP:  70;

MINOT          PTCLDY    60  52  74 CALM      30.03S SMOKE
MINOT AFB      PTCLDY    56  41  58 CALM      30.02S HAZE
$$

NDZ018>021-031>035-040>046-031300-
SOUTHWEST NORTH DAKOTA

CITY           SKY/WX    TMP DP  RH WIND       PRES   REMARKS
BISMARCK       PTCLDY    59  54  83 E5        30.06S
6HR MIN TEMP:  59; 6HR MAX TEMP:  69;

DICKINSON      CLEAR     58  53  84 SE7       30.05R
GARRISON         N/A     60  54  80 SE3       30.05S
6HR MIN TEMP:  58; 6HR MAX TEMP:  70;

HETTINGER ARPT CLEAR     60  55  83 E5        30.08R
$$

NDZ004>008-012>016-024-026-027-054-031300-
NORTHEAST NORTH DAKOTA

CITY           SKY/WX    TMP DP  RH WIND       PRES   REMARKS
GRAND FORKS    MOCLDY    61  53  75 S3        30.01R HAZE
GRND FRKS AFB  PTCLDY    62  58  86 CALM      30.01S
DEVILS LAKE    CLOUDY    62  57  83 CALM      30.06R
$$

NDZ022-023-025-028>030-036>039-047>053-031300-
SOUTHEAST NORTH DAKOTA

CITY           SKY/WX    TMP DP  RH WIND       PRES   REMARKS
FARGO          PTCLDY    62  55  77 S7        30.04S
6HR MIN TEMP:  61; 6HR MAX TEMP:  68;

JAMESTOWN      MOCLDY    61  55  81 CALM      30.06R
$$




USA.gov is the U.S. government's official web portal to all federal, state and local government web resources and services.